TFX34 YPAD-YSSY

Flight info

Callsign TFX34
Flight time 1h 33m
Altitude 35000
Route AVDEN H247 CULIN Y59 RIVET
Aircraft B738/M-SDE2E3FGHIRWXY/LB1

Departure

Time 2026-05-04 09:25
Airport Adelaide International Airport (YPAD)

Arrival

Time 2026-05-04 10:59
Airport Sydney Kingsford Smith International Airport (YSSY)
Time Latitude Longitude Altitude Speed Heading
2026-05-04 08:33 -34.94068 138.53007 23 ft 0 kts 101°
2026-05-04 09:17 -34.94030 138.52944 22 ft 0 kts 191°
2026-05-04 09:19 -34.94031 138.52944 22 ft 1 kts 191°
2026-05-04 09:19 -34.94059 138.52937 24 ft 8 kts 191°
2026-05-04 09:19 -34.94142 138.52926 21 ft 15 kts 173°
2026-05-04 09:20 -34.94271 138.52922 23 ft 22 kts 187°
2026-05-04 09:20 -34.94396 138.53004 22 ft 22 kts 123°
2026-05-04 09:20 -34.94477 138.53155 23 ft 21 kts 123°
2026-05-04 09:20 -34.94516 138.53314 22 ft 20 kts 73°
2026-05-04 09:21 -34.94432 138.53451 24 ft 20 kts 50°
2026-05-04 09:21 -34.94344 138.53578 23 ft 19 kts 50°
2026-05-04 09:21 -34.94260 138.53700 26 ft 19 kts 50°
2026-05-04 09:21 -34.94179 138.53818 24 ft 18 kts 50°
2026-05-04 09:22 -34.94101 138.53933 26 ft 17 kts 50°
2026-05-04 09:22 -34.94024 138.54043 26 ft 17 kts 49°
2026-05-04 09:22 -34.93953 138.54152 28 ft 16 kts 62°
2026-05-04 09:22 -34.94003 138.54253 30 ft 16 kts 141°
2026-05-04 09:23 -34.94081 138.54300 27 ft 6 kts 204°
2026-05-04 09:23 -34.94110 138.54260 27 ft 7 kts 230°
2026-05-04 09:23 -34.94179 138.54161 27 ft 39 kts 230°
2026-05-04 09:23 -34.94506 138.53685 22 ft 105 kts 230°
2026-05-04 09:25 -34.99978 138.45710 2554 ft 230 kts 230°
2026-05-04 09:25 -35.01065 138.44127 2741 ft 256 kts 230°
2026-05-04 09:26 -35.02441 138.42635 3053 ft 275 kts 207°
2026-05-04 09:26 -35.04298 138.42106 3621 ft 287 kts 180°
2026-05-04 09:26 -35.06223 138.42783 4368 ft 296 kts 152°
2026-05-04 09:26 -35.07907 138.44275 5055 ft 302 kts 146°
2026-05-04 09:27 -35.09524 138.45967 5665 ft 311 kts 134°
2026-05-04 09:27 -35.10532 138.48335 6387 ft 322 kts 105°
2026-05-04 09:27 -35.10660 138.51080 7081 ft 328 kts 87°
2026-05-04 09:27 -35.10469 138.53851 7731 ft 333 kts 86°
2026-05-04 09:28 -35.10252 138.56695 8436 ft 337 kts 87°
2026-05-04 09:28 -35.10048 138.59570 9164 ft 341 kts 88°
2026-05-04 09:28 -35.09854 138.62480 9917 ft 345 kts 88°
2026-05-04 09:28 -35.09664 138.65425 10609 ft 349 kts 89°
2026-05-04 09:29 -35.09539 138.67395 11099 ft 351 kts 89°
2026-05-04 09:29 -35.09287 138.71364 12062 ft 356 kts 89°
2026-05-04 09:29 -35.09157 138.73403 12568 ft 358 kts 89°
2026-05-04 09:29 -35.08898 138.77449 13569 ft 363 kts 90°
2026-05-04 09:30 -35.08748 138.79779 14121 ft 366 kts 90°
2026-05-04 09:30 -35.08636 138.81517 14488 ft 369 kts 90°
2026-05-04 09:30 -35.08366 138.85681 15395 ft 373 kts 90°
2026-05-04 09:30 -35.08158 138.88867 16069 ft 379 kts 90°
2026-05-04 09:31 -35.08019 138.91008 16492 ft 382 kts 90°
2026-05-04 09:31 -35.07805 138.94267 17182 ft 386 kts 90°
2026-05-04 09:31 -35.07587 138.97561 17872 ft 391 kts 90°
2026-05-04 09:31 -35.07366 139.00892 18517 ft 395 kts 90°
2026-05-04 09:32 -35.07142 139.04254 19100 ft 399 kts 90°
2026-05-04 09:32 -35.06918 139.07601 19717 ft 402 kts 90°
2026-05-04 09:34 -35.05255 139.32053 23758 ft 424 kts 90°
2026-05-04 09:34 -35.05005 139.35660 24195 ft 427 kts 90°
2026-05-04 09:34 -35.04752 139.39287 24621 ft 431 kts 89°
2026-05-04 09:34 -35.04496 139.42959 25041 ft 434 kts 89°
2026-05-04 09:35 -35.04240 139.46597 25451 ft 438 kts 89°
2026-05-04 09:35 -35.03977 139.50321 25859 ft 441 kts 89°
2026-05-04 09:35 -35.03711 139.54069 26285 ft 445 kts 89°
2026-05-04 09:35 -35.03443 139.57842 26664 ft 448 kts 89°
2026-05-04 09:37 -35.01474 139.85007 29184 ft 472 kts 88°
2026-05-04 09:37 -35.01179 139.89009 29541 ft 474 kts 87°
2026-05-04 09:38 -35.00880 139.93039 29880 ft 477 kts 87°
2026-05-04 09:38 -35.00579 139.97089 30223 ft 480 kts 87°
2026-05-04 09:38 -35.00274 140.01173 30408 ft 485 kts 87°
2026-05-04 09:38 -34.99968 140.05249 30643 ft 488 kts 87°
2026-05-04 09:39 -34.99657 140.09372 30904 ft 490 kts 86°
2026-05-04 09:39 -34.99343 140.13509 31241 ft 490 kts 86°
2026-05-04 09:39 -34.99027 140.17648 31635 ft 489 kts 86°
2026-05-04 09:39 -34.98712 140.21773 32007 ft 489 kts 86°
2026-05-04 09:40 -34.98393 140.25926 32249 ft 491 kts 86°
2026-05-04 09:40 -34.98075 140.30071 32577 ft 491 kts 86°
2026-05-04 09:40 -34.97754 140.34212 32964 ft 490 kts 86°
2026-05-04 09:40 -34.97551 140.38306 33324 ft 488 kts 90°
2026-05-04 09:41 -34.97541 140.42451 33660 ft 488 kts 93°
2026-05-04 09:42 -34.97986 140.71543 35106 ft 496 kts 91°
2026-05-04 09:43 -34.98027 140.79990 35101 ft 496 kts 91°
2026-05-04 09:43 -34.98065 140.88293 35110 ft 490 kts 91°
2026-05-04 09:44 -34.98101 140.96621 35107 ft 491 kts 91°
2026-05-04 09:46 -34.98191 141.31197 35090 ft 521 kts 90°
2026-05-04 09:46 -34.98199 141.39991 35089 ft 522 kts 90°
2026-05-04 09:47 -34.98200 141.48873 35093 ft 522 kts 90°
2026-05-04 09:49 -34.98136 141.84179 35097 ft 520 kts 89°
2026-05-04 09:51 -34.97999 142.15080 35078 ft 521 kts 89°
2026-05-04 09:51 -34.97945 142.23885 35084 ft 521 kts 88°
2026-05-04 09:52 -34.97884 142.32746 35086 ft 521 kts 88°
2026-05-04 09:52 -34.97818 142.41544 35078 ft 522 kts 88°
2026-05-04 09:53 -34.97745 142.50413 35080 ft 522 kts 88°
2026-05-04 09:53 -34.97665 142.59286 35078 ft 523 kts 88°
2026-05-04 09:54 -34.97579 142.68117 35060 ft 523 kts 88°
2026-05-04 09:54 -34.97487 142.77012 35080 ft 523 kts 87°
2026-05-04 09:55 -34.97388 142.85869 35075 ft 524 kts 87°
2026-05-04 09:55 -34.97282 142.94770 35077 ft 525 kts 87°
2026-05-04 09:56 -34.97169 143.03704 35078 ft 526 kts 87°
2026-05-04 09:56 -34.97051 143.12588 35072 ft 527 kts 87°
2026-05-04 09:57 -34.96926 143.21545 35041 ft 527 kts 86°
2026-05-04 09:57 -34.96807 143.30485 35071 ft 527 kts 86°
2026-05-04 09:58 -34.96700 143.39398 35073 ft 527 kts 86°
2026-05-04 09:58 -34.96587 143.48355 35068 ft 527 kts 86°
2026-05-04 10:00 -34.96055 143.84105 35061 ft 528 kts 86°
2026-05-04 10:04 -34.94867 144.46855 35064 ft 530 kts 85°
2026-05-04 10:04 -34.94671 144.55830 35066 ft 530 kts 85°
2026-05-04 10:05 -34.94467 144.64831 35063 ft 531 kts 85°
2026-05-04 10:05 -34.94258 144.73797 35069 ft 531 kts 85°
2026-05-04 10:06 -34.94041 144.82810 35066 ft 531 kts 85°
2026-05-04 10:06 -34.93818 144.91821 35066 ft 532 kts 85°
2026-05-04 10:08 -34.92976 145.23207 35067 ft 530 kts 84°
2026-05-04 10:08 -34.92715 145.32188 35063 ft 529 kts 84°
2026-05-04 10:09 -34.92450 145.41128 35065 ft 529 kts 84°
2026-05-04 10:09 -34.92177 145.50114 35066 ft 529 kts 84°
2026-05-04 10:10 -34.91900 145.59026 35050 ft 528 kts 83°
2026-05-04 10:10 -34.91614 145.68001 35068 ft 528 kts 83°
2026-05-04 10:11 -34.91323 145.76922 35069 ft 528 kts 83°
2026-05-04 10:11 -34.91027 145.85829 35073 ft 528 kts 83°
2026-05-04 10:12 -34.90721 145.94796 35074 ft 528 kts 83°
2026-05-04 10:12 -34.90410 146.03730 35075 ft 528 kts 83°
2026-05-04 10:13 -34.90094 146.12639 35078 ft 529 kts 82°
2026-05-04 10:13 -34.89769 146.21602 35071 ft 529 kts 82°
2026-05-04 10:14 -34.89437 146.30580 35078 ft 530 kts 82°
2026-05-04 10:16 -34.88039 146.66571 35084 ft 533 kts 82°
2026-05-04 10:16 -34.87674 146.75548 35085 ft 533 kts 82°
2026-05-04 10:17 -34.87299 146.84594 35079 ft 533 kts 81°
2026-05-04 10:19 -34.85806 147.19149 35086 ft 534 kts 81°
2026-05-04 10:19 -34.85332 147.29667 35090 ft 535 kts 81°
2026-05-04 10:20 -34.84987 147.37199 35096 ft 535 kts 81°
2026-05-04 10:20 -34.84565 147.46259 35091 ft 535 kts 81°
2026-05-04 10:21 -34.84137 147.55318 35103 ft 535 kts 81°
2026-05-04 10:21 -34.83704 147.64329 35101 ft 536 kts 81°
2026-05-04 10:22 -34.83040 147.77918 35100 ft 536 kts 81°
2026-05-04 10:23 -34.82588 147.86996 35104 ft 536 kts 80°
2026-05-04 10:25 -34.80716 148.23182 35094 ft 536 kts 80°
2026-05-04 10:25 -34.80231 148.32242 35106 ft 535 kts 80°
2026-05-04 10:26 -34.79741 148.41249 35106 ft 535 kts 80°
2026-05-04 10:26 -34.79243 148.50289 35098 ft 534 kts 80°
2026-05-04 10:27 -34.78743 148.59261 35111 ft 534 kts 80°
2026-05-04 10:27 -34.78233 148.68268 35097 ft 533 kts 80°
2026-05-04 10:28 -34.77715 148.77294 35085 ft 533 kts 80°
2026-05-04 10:28 -34.77108 148.86271 35096 ft 528 kts 74°
2026-05-04 10:29 -34.75228 148.94724 35103 ft 518 kts 65°
2026-05-04 10:29 -34.73040 149.03053 34714 ft 523 kts 65°
2026-05-04 10:29 -34.71946 149.07272 34165 ft 519 kts 65°
2026-05-04 10:30 -34.70882 149.11463 33320 ft 519 kts 65°
2026-05-04 10:30 -34.69842 149.15624 32924 ft 510 kts 66°
2026-05-04 10:30 -34.68819 149.19739 32299 ft 507 kts 66°
2026-05-04 10:30 -34.67801 149.23837 31810 ft 501 kts 65°
2026-05-04 10:31 -34.66807 149.27829 31314 ft 496 kts 65°
2026-05-04 10:31 -34.65807 149.31830 30832 ft 491 kts 65°
2026-05-04 10:32 -34.59999 149.54888 27717 ft 460 kts 65°
2026-05-04 10:33 -34.59061 149.58588 27209 ft 456 kts 65°
2026-05-04 10:33 -34.58132 149.62248 26716 ft 451 kts 65°
2026-05-04 10:33 -34.57216 149.65856 26264 ft 446 kts 65°
2026-05-04 10:33 -34.56304 149.69439 25787 ft 442 kts 65°
2026-05-04 10:34 -34.55399 149.72988 25300 ft 438 kts 65°
2026-05-04 10:34 -34.54499 149.76518 24839 ft 435 kts 64°
2026-05-04 10:34 -34.53606 149.80012 24345 ft 432 kts 64°
2026-05-04 10:34 -34.52726 149.83447 23872 ft 430 kts 64°
2026-05-04 10:35 -34.51841 149.86901 23353 ft 427 kts 64°
2026-05-04 10:35 -34.50959 149.90338 22823 ft 423 kts 65°
2026-05-04 10:35 -34.50041 149.93687 22354 ft 414 kts 60°
2026-05-04 10:35 -34.48811 149.96790 21871 ft 403 kts 53°
2026-05-04 10:36 -34.47490 149.99724 21422 ft 399 kts 53°
2026-05-04 10:36 -34.46145 150.02656 20961 ft 395 kts 53°
2026-05-04 10:36 -34.44823 150.05552 20520 ft 391 kts 53°
2026-05-04 10:36 -34.43521 150.08443 20062 ft 388 kts 54°
2026-05-04 10:37 -34.42239 150.11301 19619 ft 384 kts 54°
2026-05-04 10:37 -34.40968 150.14139 19200 ft 382 kts 54°
2026-05-04 10:37 -34.39712 150.16964 18763 ft 379 kts 54°
2026-05-04 10:37 -34.38468 150.19768 18316 ft 376 kts 54°
2026-05-04 10:39 -34.31204 150.36061 15643 ft 359 kts 55°
2026-05-04 10:39 -34.30019 150.38712 15224 ft 356 kts 55°
2026-05-04 10:39 -34.28838 150.41335 14808 ft 353 kts 54°
2026-05-04 10:40 -34.27670 150.43945 14440 ft 350 kts 55°
2026-05-04 10:40 -34.26526 150.46518 14130 ft 344 kts 55°
2026-05-04 10:40 -34.25393 150.49052 13738 ft 342 kts 56°
2026-05-04 10:40 -34.24262 150.51576 13306 ft 339 kts 55°
2026-05-04 10:41 -34.23155 150.54046 12876 ft 337 kts 56°
2026-05-04 10:41 -34.22040 150.56532 12448 ft 335 kts 56°
2026-05-04 10:41 -34.20929 150.59007 12026 ft 332 kts 56°
2026-05-04 10:41 -34.19828 150.61459 11604 ft 330 kts 56°
2026-05-04 10:42 -34.18731 150.63898 11186 ft 329 kts 56°
2026-05-04 10:42 -34.17655 150.66290 10754 ft 328 kts 56°
2026-05-04 10:42 -34.16570 150.68711 10482 ft 322 kts 56°
2026-05-04 10:42 -34.15514 150.71059 10303 ft 314 kts 56°
2026-05-04 10:43 -34.14485 150.73343 10165 ft 305 kts 56°
2026-05-04 10:44 -34.07702 150.88386 8355 ft 288 kts 56°
2026-05-04 10:45 -34.06744 150.90514 8108 ft 288 kts 56°
2026-05-04 10:45 -34.05786 150.92640 7876 ft 288 kts 56°
2026-05-04 10:45 -34.04828 150.94762 7633 ft 288 kts 56°
2026-05-04 10:45 -34.03870 150.96887 7397 ft 288 kts 56°
2026-05-04 10:46 -34.03215 150.99201 7126 ft 299 kts 82°
2026-05-04 10:46 -34.03545 151.01683 6895 ft 306 kts 112°
2026-05-04 10:46 -34.04764 151.03782 6656 ft 307 kts 133°
2026-05-04 10:46 -34.06231 151.05614 6400 ft 307 kts 134°
2026-05-04 10:47 -34.07803 151.07363 6107 ft 306 kts 148°
2026-05-04 10:47 -34.09748 151.08272 5870 ft 297 kts 171°
2026-05-04 10:47 -34.11761 151.08764 5617 ft 294 kts 172°
2026-05-04 10:47 -34.13742 151.09242 5366 ft 292 kts 172°
2026-05-04 10:49 -34.27137 151.12535 4290 ft 269 kts 149°
2026-05-04 10:49 -34.28362 151.14138 4269 ft 253 kts 111°
2026-05-04 10:50 -34.28566 151.16126 4244 ft 231 kts 75°
2026-05-04 10:51 -34.23395 151.24395 3300 ft 186 kts 349°
2026-05-04 10:52 -34.22134 151.24205 3116 ft 178 kts 349°
2026-05-04 10:52 -34.20921 151.24024 3025 ft 175 kts 350°
2026-05-04 10:52 -34.19713 151.23846 3030 ft 175 kts 350°
2026-05-04 10:54 -34.11500 151.21995 2975 ft 163 kts 345°
2026-05-04 10:54 -34.10396 151.21707 2789 ft 161 kts 345°
2026-05-04 10:56 -34.03694 151.19959 1511 ft 133 kts 348°
2026-05-04 10:56 -34.02797 151.19727 1342 ft 131 kts 348°
2026-05-04 10:56 -34.01884 151.19489 1153 ft 136 kts 349°
2026-05-04 10:57 -34.00968 151.19251 978 ft 134 kts 348°
2026-05-04 10:57 -34.00049 151.19011 795 ft 139 kts 350°
2026-05-04 10:57 -33.99109 151.18766 640 ft 138 kts 348°
2026-05-04 10:57 -33.98165 151.18518 437 ft 136 kts 350°
2026-05-04 10:58 -33.97234 151.18279 248 ft 136 kts 349°
2026-05-04 10:58 -33.96303 151.18034 88 ft 138 kts 349°
2026-05-04 10:58 -33.95396 151.17798 28 ft 114 kts 348°
2026-05-04 10:58 -33.94833 151.17650 28 ft 53 kts 348°
2026-05-04 10:59 -33.94583 151.17566 29 ft 33 kts 337°
2026-05-04 10:59 -33.94399 151.17436 29 ft 28 kts 318°
2026-05-04 10:59 -33.94274 151.17308 29 ft 23 kts 329°
2026-05-04 10:59 -33.94124 151.17265 27 ft 22 kts 347°
2026-05-04 11:00 -33.93986 151.17228 28 ft 17 kts 347°
2026-05-04 11:01 -33.93291 151.16932 29 ft 14 kts 255°
2026-05-04 11:02 -33.93274 151.16850 29 ft 8 kts 301°
2026-05-04 11:02 -33.93253 151.16803 29 ft 1 kts 298°
2026-05-04 11:05 -33.93252 151.16802 29 ft 0 kts 298°